Weather observations for the past three days for
Phillips Army Air Field / Aberdeen
Imperial (Metric)
Date Time (edt) Wind (mph) Vis. (mi.) Weather Sky Cond. Temperature (ºF) Relative Humidity Wind Chill (°F) Heat Index (°F) Pressure Precipitation (in)
Air Dwpt 6 hour altimeter (in) sea level (mb) 1 hr 3 hr 6 hr
Max. Min.
19 16:55 Calm 10.00 Partly Cloudy SCT040 82.4 60.8 48% 83 30.09 0.0
19 15:55 S 7 10.00 Partly Cloudy SCT040 82.9 61.2 48% 83 30.11 1019.9
19 14:55 S 5 10.00 Partly Cloudy SCT040 82.8 62.2 50% 84 30.12 1020.2
19 13:55 S 9 10.00 A Few Clouds FEW030 83.1 63.7 83.5 72 52% 84 30.13 1020.5
19 12:55 Calm 10.00 Fair CLR 81.3 60.8 50% 82 30.14 1020.9
19 11:55 E 3 10.00 A Few Clouds FEW200 80.6 60.3 50% 81 30.14 1020.9
19 10:55 E 3 10.00 Fair CLR 79.2 59.9 52% 80 30.14 1020.9
19 09:55 Calm 10.00 Fair CLR 76.6 57.7 52% 78 30.14 1020.9
19 08:55 NE 10 10.00 A Few Clouds FEW100 75.6 57.7 54% 78 30.14 1020.9
19 07:55 N 6 10.00 A Few Clouds FEW080 71.8 59.4 71.8 65.8 65% 30.13 1020.5
19 06:55 N 3 10.00 Partly Cloudy SCT100 68.2 61.7 80% 30.1 1019.5
19 05:55 NE 5 10.00 Partly Cloudy SCT090 66 60.3 82% 30.07 1018.5
18 16:51 N 7 10.00 Mostly Cloudy BKN070 84.2 69.8 62% 88 29.93 0.0
18 15:55 N 6 10.00 Overcast SCT030 OVC090 83.1 69.1 63% 87 29.94 1014.1
18 14:55 N 3 10.00 Mostly Cloudy FEW030 BKN090 82.8 66.4 58% 85 29.95 1014.4
18 13:55 NW 7 10.00 Mostly Cloudy SCT030 BKN090 81.9 68.9 85.3 74.1 65% 85 29.95 1014.4
18 12:55 N 5 10.00 Partly Cloudy SCT110 83.8 68.9 61% 87 29.94 1014.1
18 11:55 N 7 10.00 Mostly Cloudy SCT100 BKN150 81.3 69.6 68% 85 29.94 1014.1
18 10:55 N 5 10.00 Mostly Cloudy SCT110 BKN150 80.1 70.5 73% 83 29.95 1014.4
18 10:07 N 5 10.00 Mostly Cloudy SCT110 BKN210 77.4 70 78% 79 29.94 1014.1
18 09:55 N 5 10.00 A Few Clouds FEW150 FEW190 FEW280 77.2 70.9 81% 79 29.94 1014.1
18 08:55 W 3 10.00 Mostly Cloudy SCT110 BKN140 75.9 70.7 84% 77 29.92 1013.4
Date Time (edt) Wind (mph) Vis. (mi.) Weather Sky Cond. Air Dwpt Max. Min. Relative Humidity Wind Chill (°F) Heat Index (°F) altimeter (in) sea level (mb) 1 hr 3 hr 6 hr
6 hour
Temperature (ºF) Pressure Precipitation (in)